When you browse on this site, cookies collect data to enhance your experience and personalize the content and advertising you see.
Visit our Privacy Policy to learn more. By continuing to use the site, you agree to this use of cookies and data.
  • In United Kingdom
  • List of Countries
  • For 7 days
  • Water Temperature
  • Weather Map
  • Weather Widgets
  • user-avatar
    Login

    Hourly Weather Mbandaka

    Today, 29 May, Friday

    Time Temperature Precipitation Wind Pressure Humidity
    00:00 +23°C° 0 mm 0 mps 730 mmHg 93%
    01:00 +23°C° 0 mm 0 mps 730 mmHg 93%
    02:00 +23°C° 0 mm 0 mps 730 mmHg 94%
    03:00 +23°C° 0 mm 0 mps 730 mmHg 94%
    04:00 +22°C° 0 mm 0 mps 730 mmHg 95%
    05:00 +23°C° 0 mm 0 mps 730 mmHg 93%
    06:00 +23°C° 0 mm 0 mps 731 mmHg 92%
    07:00 +24°C° 0 mm 0 mps 731 mmHg 91%
    08:00 +27°C° 0.1 mm 0 mps 732 mmHg 80%
    09:00 +29°C° 0.1 mm 0 mps 732 mmHg 69%
    10:00 +32°C° 0.1 mm 0 mps 732 mmHg 58%
    11:00 +33°C° 0.1 mm 0 mps 731 mmHg 54%
    12:00 +33°C° 0.1 mm 0 mps 731 mmHg 50%
    13:00 +36°C° 0.1 mm 1 mps 730 mmHg 46%
    14:00 +34°C° 0.7 mm 1 mps 729 mmHg 54%
    15:00 +32°C° 0.7 mm 1 mps 729 mmHg 62%
    16:00 +30°C° 0.7 mm 2 mps 728 mmHg 69%
    17:00 +29°C° 1.6 mm 1 mps 729 mmHg 78%
    18:00 +27°C° 1.6 mm 1 mps 729 mmHg 87%
    19:00 +25°C° 1.6 mm 1 mps 730 mmHg 95%
    20:00 +25°C° 2.4 mm 1 mps 730 mmHg 96%
    21:00 +25°C° 2.4 mm 1 mps 731 mmHg 96%
    22:00 +25°C° 2.4 mm 2 mps 731 mmHg 97%
    23:00 +24°C° 2.5 mm 1 mps 731 mmHg 97%

    Tomorrow, 30 May, Saturday

    Time Temperature Precipitation Wind Pressure Humidity
    00:00 +24°C° 2.5 mm 1 mps 731 mmHg 98%
    01:00 +24°C° 2.5 mm 1 mps 731 mmHg 98%
    02:00 +24°C° 0.8 mm 1 mps 730 mmHg 98%
    03:00 +24°C° 0.8 mm 1 mps 730 mmHg 97%
    04:00 +23°C° 0.8 mm 1 mps 730 mmHg 97%
    05:00 +24°C° 0.4 mm 1 mps 731 mmHg 97%
    06:00 +24°C° 0.4 mm 1 mps 731 mmHg 97%
    07:00 +24°C° 0.4 mm 1 mps 732 mmHg 96%
    08:00 +25°C° 0 mm 1 mps 732 mmHg 91%
    09:00 +26°C° 0 mm 2 mps 732 mmHg 86%
    10:00 +27°C° 0 mm 2 mps 732 mmHg 80%
    11:00 +29°C° 0 mm 1 mps 731 mmHg 74%
    12:00 +30°C° 0 mm 1 mps 731 mmHg 67%
    13:00 +31°C° 0 mm 1 mps 730 mmHg 60%
    14:00 +31°C° 0 mm 1 mps 730 mmHg 62%
    15:00 +31°C° 0 mm 1 mps 730 mmHg 63%
    16:00 +31°C° 0 mm 1 mps 729 mmHg 64%
    17:00 +30°C° 0 mm 1 mps 729 mmHg 68%
    18:00 +28°C° 0 mm 1 mps 730 mmHg 72%
    19:00 +27°C° 0 mm 1 mps 730 mmHg 75%
    20:00 +27°C° 0 mm 1 mps 731 mmHg 78%
    21:00 +26°C° 0 mm 1 mps 731 mmHg 81%
    22:00 +25°C° 0 mm 1 mps 731 mmHg 84%
    23:00 +25°C° 0 mm 1 mps 731 mmHg 86%

    Day after tomorrow, 31 May, Sunday

    Time Temperature Precipitation Wind Pressure Humidity
    00:00 +23°C° 0 mm 0 mps 731 mmHg 88%
    01:00 +22°C° 0 mm 0 mps 731 mmHg 90%
    02:00 +22°C° 0 mm 0 mps 731 mmHg 91%
    03:00 +22°C° 0 mm 0 mps 730 mmHg 92%
    04:00 +22°C° 0 mm 0 mps 730 mmHg 92%
    05:00 +22°C° 0.1 mm 0 mps 731 mmHg 91%
    06:00 +23°C° 0.1 mm 0 mps 731 mmHg 89%
    07:00 +23°C° 0.1 mm 0 mps 732 mmHg 88%
    08:00 +25°C° 0.2 mm 0 mps 732 mmHg 82%
    09:00 +26°C° 0.2 mm 0 mps 733 mmHg 77%
    10:00 +29°C° 0.2 mm 1 mps 733 mmHg 72%
    11:00 +30°C° 0.3 mm 1 mps 732 mmHg 70%
    12:00 +30°C° 0.3 mm 1 mps 732 mmHg 68%
    13:00 +31°C° 0.3 mm 1 mps 731 mmHg 66%
    14:00 +31°C° 0.7 mm 1 mps 731 mmHg 68%
    15:00 +31°C° 0.7 mm 1 mps 730 mmHg 69%
    16:00 +28°C° 0.7 mm 0 mps 730 mmHg 70%
    17:00 +27°C° 0 mm 0 mps 730 mmHg 74%
    18:00 +26°C° 0 mm 0 mps 730 mmHg 79%
    19:00 +27°C° 0 mm 1 mps 730 mmHg 83%
    20:00 +24°C° 0 mm 0 mps 731 mmHg 85%
    21:00 +24°C° 0 mm 0 mps 731 mmHg 86%
    22:00 +23°C° 0 mm 0 mps 731 mmHg 88%
    23:00 +23°C° 0 mm 0 mps 731 mmHg 87%

    1 June, Monday

    Time Temperature Precipitation Wind Pressure Humidity
    00:00 +23°C° 0 mm 0 mps 731 mmHg 87%
    01:00 +23°C° 0 mm 0 mps 731 mmHg 87%
    02:00 +23°C° 0 mm 0 mps 731 mmHg 88%
    03:00 +23°C° 0 mm 0 mps 731 mmHg 88%
    04:00 +23°C° 0 mm 0 mps 731 mmHg 88%
    05:00 +23°C° 0.2 mm 0 mps 731 mmHg 88%
    06:00 +23°C° 0.2 mm 0 mps 732 mmHg 87%
    07:00 +24°C° 0.2 mm 0 mps 732 mmHg 86%
    08:00 +27°C° 0.1 mm 0 mps 732 mmHg 76%
    09:00 +29°C° 0.1 mm 0 mps 733 mmHg 66%
    10:00 +32°C° 0.1 mm 0 mps 733 mmHg 56%
    11:00 +32°C° 0 mm 0 mps 732 mmHg 54%
    12:00 +32°C° 0 mm 0 mps 731 mmHg 52%
    13:00 +35°C° 0 mm 1 mps 731 mmHg 50%
    14:00 +34°C° 0.3 mm 1 mps 730 mmHg 55%
    15:00 +33°C° 0.3 mm 1 mps 730 mmHg 60%
    16:00 +32°C° 0.3 mm 1 mps 729 mmHg 64%
    17:00 +30°C° 0.2 mm 1 mps 729 mmHg 71%
    18:00 +26°C° 0.2 mm 0 mps 730 mmHg 77%
    19:00 +25°C° 0.2 mm 0 mps 730 mmHg 83%
    20:00 +24°C° 0.5 mm 0 mps 730 mmHg 86%
    21:00 +24°C° 0.5 mm 0 mps 730 mmHg 88%
    22:00 +23°C° 0.5 mm 0 mps 731 mmHg 91%
    23:00 +23°C° 0 mm 0 mps 731 mmHg 91%

    2 June, Tuesday

    Time Temperature Precipitation Wind Pressure Humidity
    00:00 +25°C° 0 mm 1 mps 730 mmHg 92%
    01:00 +25°C° 0 mm 1 mps 730 mmHg 93%
    02:00 +25°C° 0 mm 1 mps 730 mmHg 94%
    03:00 +24°C° 0 mm 1 mps 730 mmHg 95%
    04:00 +24°C° 0 mm 1 mps 730 mmHg 95%
    05:00 +25°C° 0 mm 1 mps 731 mmHg 93%
    06:00 +25°C° 0 mm 1 mps 731 mmHg 91%
    07:00 +24°C° 0 mm 0 mps 732 mmHg 89%
    08:00 +26°C° 0 mm 0 mps 732 mmHg 80%
    09:00 +28°C° 0 mm 0 mps 732 mmHg 70%
    10:00 +31°C° 0 mm 0 mps 732 mmHg 60%
    11:00 +33°C° 1.2 mm 1 mps 732 mmHg 60%
    12:00 +33°C° 1.2 mm 1 mps 731 mmHg 60%
    13:00 +33°C° 1.2 mm 1 mps 730 mmHg 59%
    14:00 +33°C° 0.1 mm 1 mps 730 mmHg 58%
    15:00 +33°C° 0.1 mm 1 mps 729 mmHg 58%
    16:00 +31°C° 0.1 mm 0 mps 729 mmHg 57%
    17:00 +31°C° 0.1 mm 1 mps 729 mmHg 64%
    18:00 +29°C° 0.1 mm 1 mps 729 mmHg 71%
    19:00 +27°C° 0.1 mm 1 mps 730 mmHg 78%
    20:00 +26°C° 0.6 mm 1 mps 730 mmHg 83%
    21:00 +25°C° 0.6 mm 1 mps 730 mmHg 89%
    22:00 +24°C° 0.6 mm 1 mps 731 mmHg 95%
    23:00 +24°C° 0.3 mm 1 mps 730 mmHg 95%

    3 June, Wednesday

    Time Temperature Precipitation Wind Pressure Humidity
    00:00 +24°C° 0.3 mm 1 mps 730 mmHg 96%
    01:00 +24°C° 0.3 mm 1 mps 730 mmHg 96%
    02:00 +24°C° 0.1 mm 1 mps 730 mmHg 96%
    03:00 +24°C° 0.1 mm 1 mps 730 mmHg 95%
    04:00 +24°C° 0.1 mm 1 mps 730 mmHg 95%
    05:00 +24°C° 0 mm 1 mps 730 mmHg 94%
    06:00 +24°C° 0 mm 1 mps 731 mmHg 94%
    07:00 +25°C° 0 mm 1 mps 731 mmHg 93%
    08:00 +27°C° 0 mm 1 mps 731 mmHg 84%
    09:00 +29°C° 0 mm 1 mps 732 mmHg 75%
    10:00 +31°C° 0 mm 1 mps 732 mmHg 65%
    11:00 +30°C° 2.1 mm 2 mps 731 mmHg 72%
    12:00 +30°C° 2.1 mm 2 mps 731 mmHg 78%
    13:00 +29°C° 2.1 mm 2 mps 730 mmHg 84%
    14:00 +28°C° 1.3 mm 2 mps 730 mmHg 87%
    15:00 +27°C° 1.3 mm 3 mps 730 mmHg 90%
    16:00 +25°C° 1.3 mm 3 mps 730 mmHg 93%
    17:00 +25°C° 0 mm 2 mps 730 mmHg 93%
    18:00 +25°C° 0 mm 2 mps 730 mmHg 94%
    19:00 +24°C° 0 mm 1 mps 731 mmHg 95%
    20:00 +24°C° 0 mm 1 mps 731 mmHg 95%
    21:00 +24°C° 0 mm 1 mps 730 mmHg 95%
    22:00 +23°C° 0 mm 2 mps 730 mmHg 95%
    23:00 +23°C° 0 mm 1 mps 730 mmHg 94%
    Show more